| time (UTC) | temp F | wind direction | speed MPH | gust MPH | rain 1hr in | rain 24hr in | rain mn in | humidity % | barometer mb |
| 20260906031032 | 53 | 282 | 13.0 | 0.0 | 0.00 | 0.01 | 0.00 | 76 | 1023.8 |
| 20260906030531 | 53 | 285 | 12.0 | 0.0 | 0.00 | 0.01 | 0.00 | 76 | 1023.7 |
| 20260906030032 | 53 | 287 | 9.0 | 0.0 | 0.00 | 0.01 | 0.00 | 76 | 1023.8 |
| 20260906025532 | 53 | 297 | 11.0 | 0.0 | 0.00 | 0.01 | 0.00 | 75 | 1023.7 |
| 20260906025032 | 53 | 302 | 8.0 | 0.0 | 0.00 | 0.01 | 0.00 | 75 | 1023.6 |
| 20260906024531 | 53 | 300 | 9.0 | 0.0 | 0.00 | 0.01 | 0.00 | 75 | 1023.6 |
| 20260906024032 | 53 | 307 | 10.0 | 0.0 | 0.00 | 0.01 | 0.00 | 75 | 1023.6 |
| 20260906023531 | 54 | 307 | 10.0 | 0.0 | 0.00 | 0.01 | 0.00 | 75 | 1023.5 |
| 20260906023032 | 54 | 295 | 9.0 | 0.0 | 0.00 | 0.01 | 0.00 | 74 | 1023.5 |
| 20260906022532 | 54 | 310 | 12.0 | 0.0 | 0.00 | 0.01 | 0.00 | 73 | 1023.6 |
| 20260906022032 | 54 | 300 | 11.0 | 0.0 | 0.00 | 0.01 | 0.00 | 73 | 1023.5 |
| 20260906021531 | 54 | 300 | 10.0 | 0.0 | 0.00 | 0.01 | 0.00 | 72 | 1023.3 |
| 20260906021031 | 55 | 330 | 11.0 | 0.0 | 0.00 | 0.01 | 0.00 | 72 | 1023.3 |
| 20260906020532 | 55 | 300 | 9.0 | 0.0 | 0.00 | 0.01 | 0.00 | 72 | 1023.3 |
| 20260906020032 | 55 | 307 | 9.0 | 0.0 | 0.00 | 0.01 | 0.00 | 72 | 1023.2 |
| 20260906015532 | 55 | 307 | 12.0 | 0.0 | 0.00 | 0.01 | 0.00 | 71 | 1023.3 |
| 20260906015032 | 55 | 317 | 12.0 | 0.0 | 0.00 | 0.01 | 0.00 | 71 | 1023.3 |
| 20260906014532 | 55 | 310 | 12.0 | 0.0 | 0.00 | 0.01 | 0.00 | 71 | 1023.3 |
| 20260906014032 | 56 | 312 | 14.0 | 0.0 | 0.00 | 0.01 | 0.00 | 71 | 1023.3 |
| 20260906013531 | 56 | 292 | 12.0 | 0.0 | 0.00 | 0.01 | 0.00 | 70 | 1023.3 |
| 20260906013031 | 56 | 305 | 14.0 | 0.0 | 0.00 | 0.01 | 0.00 | 70 | 1023.2 |
| 20260906012531 | 56 | 335 | 11.0 | 0.0 | 0.00 | 0.01 | 0.00 | 70 | 1023.3 |
| 20260906012032 | 56 | 292 | 12.0 | 0.0 | 0.00 | 0.01 | 0.00 | 70 | 1023.2 |
| 20260906011532 | 56 | 297 | 9.0 | 0.0 | 0.00 | 0.01 | 0.00 | 70 | 1023.1 |
| 20260906011032 | 56 | 330 | 9.0 | 0.0 | 0.00 | 0.01 | 0.00 | 69 | 1023.1 |
| 20260906010532 | 56 | 340 | 9.0 | 0.0 | 0.00 | 0.01 | 0.00 | 69 | 1023.0 |
| 20260906010032 | 56 | 317 | 10.0 | 0.0 | 0.00 | 0.01 | 0.00 | 69 | 1023.1 |
| 20260906005531 | 56 | 312 | 11.0 | 0.0 | 0.00 | 0.01 | 0.00 | 70 | 1023.1 |
| 20260906005031 | 56 | 312 | 13.0 | 0.0 | 0.00 | 0.01 | 0.00 | 70 | 1023.1 |
| 20260906004531 | 56 | 340 | 11.0 | 0.0 | 0.00 | 0.01 | 0.00 | 69 | 1023.0 |
| 20260906004032 | 56 | 327 | 11.0 | 0.0 | 0.00 | 0.01 | 0.00 | 69 | 1023.0 |
| 20260906003532 | 56 | 327 | 11.0 | 0.0 | 0.00 | 0.01 | 0.00 | 69 | 1022.9 |
| 20260906003031 | 56 | 302 | 13.0 | 0.0 | 0.00 | 0.01 | 0.00 | 68 | 1023.0 |
| 20260906002532 | 56 | 312 | 11.0 | 0.0 | 0.00 | 0.01 | 0.00 | 68 | 1022.9 |
| 20260906002032 | 56 | 315 | 11.0 | 0.0 | 0.00 | 0.01 | 0.00 | 70 | 1022.8 |
| 20260906001531 | 56 | 315 | 11.0 | 0.0 | 0.00 | 0.01 | 0.00 | 70 | 1022.8 |
| 20260906001031 | 56 | 315 | 11.0 | 0.0 | 0.00 | 0.01 | 0.00 | 70 | 1022.8 |
| 20260906000531 | 56 | 315 | 11.0 | 0.0 | 0.00 | 0.01 | 0.00 | 70 | 1022.8 |
| 20260906000032 | 56 | 315 | 11.0 | 0.0 | 0.00 | 0.01 | 0.00 | 70 | 1022.8 |
| 20260905235531 | 56 | 290 | 10.0 | 0.0 | 0.00 | 0.01 | 0.00 | 70 | 1022.8 |
| 20260905235032 | 56 | 295 | 10.0 | 0.0 | 0.00 | 0.01 | 0.00 | 70 | 1022.8 |
| 20260905234532 | 56 | 285 | 10.0 | 0.0 | 0.00 | 0.01 | 0.00 | 69 | 1022.7 |
| 20260905234031 | 56 | 335 | 10.0 | 0.0 | 0.00 | 0.01 | 0.00 | 69 | 1022.8 |
| 20260905233531 | 56 | 327 | 9.0 | 0.0 | 0.00 | 0.01 | 0.00 | 69 | 1022.6 |
| 20260905233031 | 56 | 315 | 10.0 | 0.0 | 0.00 | 0.01 | 0.00 | 69 | 1022.6 |
| 20260905232532 | 56 | 285 | 12.0 | 0.0 | 0.00 | 0.01 | 0.00 | 69 | 1022.6 |
| 20260905232032 | 56 | 275 | 14.0 | 0.0 | 0.00 | 0.01 | 0.00 | 70 | 1022.6 |
| 20260905231532 | 56 | 317 | 12.0 | 0.0 | 0.00 | 0.01 | 0.00 | 69 | 1022.6 |
| 20260905230532 | 56 | 290 | 13.0 | 0.0 | 0.00 | 0.01 | 0.00 | 69 | 1022.4 |
| 20260905230032 | 56 | 292 | 13.0 | 0.0 | 0.00 | 0.01 | 0.00 | 70 | 1022.2 |
| 20260905225532 | 56 | 315 | 10.0 | 0.0 | 0.00 | 0.01 | 0.00 | 70 | 1022.2 |
| 20260905225032 | 57 | 287 | 11.0 | 0.0 | 0.00 | 0.01 | 0.00 | 69 | 1022.3 |
| 20260905224532 | 57 | 312 | 11.0 | 0.0 | 0.00 | 0.01 | 0.00 | 69 | 1022.2 |
| 20260905224032 | 57 | 305 | 10.0 | 0.0 | 0.00 | 0.01 | 0.00 | 69 | 1022.1 |
| 20260905223531 | 57 | 292 | 10.0 | 0.0 | 0.00 | 0.01 | 0.00 | 69 | 1022.1 |
| 20260905223032 | 57 | 297 | 14.0 | 0.0 | 0.00 | 0.01 | 0.00 | 69 | 1022.1 |
| 20260905222531 | 57 | 305 | 9.0 | 0.0 | 0.00 | 0.01 | 0.00 | 69 | 1022.0 |
| 20260905222032 | 57 | 300 | 11.0 | 0.0 | 0.00 | 0.01 | 0.00 | 69 | 1022.0 |
| 20260905221532 | 58 | 290 | 12.0 | 0.0 | 0.00 | 0.01 | 0.00 | 68 | 1022.0 |
| 20260905221031 | 58 | 280 | 11.0 | 0.0 | 0.00 | 0.01 | 0.00 | 68 | 1022.0 |
| 20260905220532 | 58 | 287 | 12.0 | 0.0 | 0.00 | 0.01 | 0.00 | 68 | 1021.9 |
| 20260905220032 | 58 | 280 | 12.0 | 0.0 | 0.00 | 0.01 | 0.00 | 68 | 1022.0 |
| 20260905215532 | 58 | 290 | 12.0 | 0.0 | 0.00 | 0.01 | 0.00 | 68 | 1021.9 |
| 20260905215031 | 58 | 270 | 12.0 | 0.0 | 0.00 | 0.01 | 0.00 | 68 | 1021.9 |
| 20260905214531 | 58 | 282 | 14.0 | 0.0 | 0.00 | 0.01 | 0.00 | 68 | 1021.9 |
| 20260905214032 | 58 | 285 | 9.0 | 0.0 | 0.00 | 0.01 | 0.00 | 68 | 1021.8 |
| 20260905213532 | 58 | 275 | 12.0 | 0.0 | 0.00 | 0.01 | 0.00 | 68 | 1021.8 |
| 20260905213032 | 58 | 280 | 11.0 | 0.0 | 0.00 | 0.01 | 0.00 | 68 | 1021.7 |
| 20260905212531 | 58 | 290 | 10.0 | 0.0 | 0.00 | 0.01 | 0.00 | 68 | 1021.8 |
| 20260905212032 | 58 | 310 | 12.0 | 0.0 | 0.00 | 0.01 | 0.00 | 67 | 1021.7 |
| 20260905211532 | 58 | 300 | 10.0 | 0.0 | 0.00 | 0.01 | 0.00 | 67 | 1021.7 |
| 20260905211031 | 58 | 315 | 9.0 | 0.0 | 0.00 | 0.01 | 0.00 | 67 | 1021.6 |
| 20260905210531 | 58 | 325 | 9.0 | 0.0 | 0.00 | 0.01 | 0.00 | 67 | 1021.6 |
| 20260905210032 | 58 | 305 | 11.0 | 0.0 | 0.00 | 0.01 | 0.00 | 67 | 1021.5 |
| 20260905205532 | 58 | 295 | 8.0 | 0.0 | 0.00 | 0.01 | 0.00 | 66 | 1021.6 |
| 20260905205032 | 59 | 317 | 8.0 | 0.0 | 0.00 | 0.01 | 0.00 | 66 | 1021.6 |
| 20260905204532 | 59 | 300 | 12.0 | 0.0 | 0.00 | 0.01 | 0.00 | 66 | 1021.5 |
| 20260905204032 | 59 | 300 | 10.0 | 0.0 | 0.00 | 0.01 | 0.00 | 66 | 1021.5 |
| 20260905203532 | 59 | 315 | 12.0 | 0.0 | 0.00 | 0.01 | 0.00 | 66 | 1021.4 |
| 20260905203032 | 59 | 292 | 15.0 | 0.0 | 0.00 | 0.01 | 0.00 | 66 | 1021.4 |
| 20260905202532 | 59 | 325 | 10.0 | 0.0 | 0.00 | 0.01 | 0.00 | 67 | 1021.3 |
| 20260905202031 | 59 | 315 | 12.0 | 0.0 | 0.00 | 0.01 | 0.00 | 67 | 1021.2 |
| 20260905201532 | 59 | 305 | 11.0 | 0.0 | 0.00 | 0.01 | 0.00 | 68 | 1021.1 |
| 20260905201032 | 58 | 300 | 14.0 | 0.0 | 0.00 | 0.01 | 0.00 | 69 | 1021.1 |
| 20260905200531 | 58 | 290 | 11.0 | 0.0 | 0.00 | 0.01 | 0.00 | 69 | 1021.0 |
| 20260905200032 | 58 | 305 | 10.0 | 0.0 | 0.00 | 0.01 | 0.00 | 69 | 1020.9 |
| 20260905195532 | 58 | 295 | 13.0 | 0.0 | 0.00 | 0.01 | 0.00 | 69 | 1021.0 |
| 20260905195032 | 59 | 292 | 9.0 | 0.0 | 0.00 | 0.01 | 0.00 | 69 | 1021.0 |
| 20260905194532 | 59 | 287 | 13.0 | 0.0 | 0.00 | 0.01 | 0.00 | 69 | 1021.0 |
| 20260905194032 | 58 | 295 | 11.0 | 0.0 | 0.00 | 0.01 | 0.00 | 69 | 1020.9 |
| 20260905193532 | 59 | 287 | 12.0 | 0.0 | 0.00 | 0.01 | 0.00 | 68 | 1020.8 |
| 20260905193032 | 59 | 302 | 9.0 | 0.0 | 0.00 | 0.01 | 0.00 | 68 | 1020.7 |
| 20260905192531 | 59 | 300 | 14.0 | 0.0 | 0.00 | 0.01 | 0.00 | 68 | 1020.6 |
| 20260905192032 | 59 | 315 | 16.0 | 0.0 | 0.00 | 0.01 | 0.00 | 68 | 1020.5 |
| 20260905191532 | 59 | 305 | 11.0 | 0.0 | 0.00 | 0.01 | 0.00 | 68 | 1020.6 |
| 20260905191032 | 59 | 297 | 9.0 | 0.0 | 0.00 | 0.01 | 0.00 | 68 | 1020.6 |
| 20260905190532 | 59 | 295 | 10.0 | 0.0 | 0.00 | 0.01 | 0.00 | 68 | 1020.4 |
| 20260905190032 | 59 | 275 | 12.0 | 0.0 | 0.00 | 0.01 | 0.00 | 68 | 1020.4 |
| 20260905185532 | 59 | 317 | 14.0 | 0.0 | 0.00 | 0.01 | 0.00 | 68 | 1020.4 |
| 20260905185032 | 59 | 305 | 13.0 | 0.0 | 0.00 | 0.01 | 0.00 | 68 | 1020.4 |
| 20260905184531 | 59 | 300 | 11.0 | 0.0 | 0.00 | 0.01 | 0.00 | 68 | 1020.3 |
| 20260905184031 | 59 | 305 | 13.0 | 0.0 | 0.00 | 0.01 | 0.00 | 68 | 1020.4 |
| 20260905183532 | 59 | 312 | 9.0 | 0.0 | 0.00 | 0.01 | 0.00 | 67 | 1020.4 |
| 20260905183031 | 59 | 300 | 10.0 | 0.0 | 0.00 | 0.01 | 0.00 | 67 | 1020.3 |
| 20260905182532 | 60 | 335 | 10.0 | 0.0 | 0.00 | 0.01 | 0.00 | 67 | 1020.3 |
| 20260905182032 | 60 | 305 | 11.0 | 0.0 | 0.00 | 0.01 | 0.00 | 66 | 1020.4 |
| 20260905181531 | 60 | 320 | 10.0 | 0.0 | 0.00 | 0.01 | 0.00 | 66 | 1020.2 |
| 20260905181031 | 60 | 300 | 10.0 | 0.0 | 0.00 | 0.01 | 0.00 | 65 | 1020.3 |
| 20260905180531 | 61 | 320 | 9.0 | 0.0 | 0.00 | 0.01 | 0.00 | 64 | 1020.1 |
| 20260905180032 | 61 | 355 | 14.0 | 0.0 | 0.00 | 0.01 | 0.00 | 62 | 1019.8 |
| 20260905175532 | 62 | 337 | 9.0 | 0.0 | 0.00 | 0.01 | 0.00 | 60 | 1019.9 |
| 20260905175032 | 63 | 305 | 10.0 | 0.0 | 0.00 | 0.01 | 0.00 | 58 | 1019.8 |
| 20260905174532 | 64 | 320 | 10.0 | 0.0 | 0.00 | 0.01 | 0.00 | 55 | 1019.8 |
| 20260905174031 | 64 | 305 | 15.0 | 0.0 | 0.00 | 0.01 | 0.00 | 54 | 1019.4 |
| 20260905173531 | 64 | 297 | 15.0 | 0.0 | 0.00 | 0.01 | 0.00 | 53 | 1019.2 |
| 20260905173032 | 64 | 290 | 16.0 | 0.0 | 0.00 | 0.01 | 0.00 | 53 | 1019.1 |
| 20260905172531 | 64 | 295 | 18.0 | 0.0 | 0.00 | 0.01 | 0.00 | 53 | 1019.1 |
| 20260905172031 | 64 | 272 | 16.0 | 0.0 | 0.00 | 0.01 | 0.00 | 52 | 1019.2 |
| 20260905171531 | 65 | 272 | 17.0 | 0.0 | 0.00 | 0.01 | 0.00 | 51 | 1019.1 |
| 20260905171032 | 65 | 280 | 20.0 | 0.0 | 0.00 | 0.01 | 0.00 | 51 | 1019.0 |
| 20260905170532 | 65 | 272 | 15.0 | 0.0 | 0.00 | 0.01 | 0.00 | 51 | 1018.7 |
| 20260905170032 | 65 | 282 | 15.0 | 0.0 | 0.00 | 0.01 | 0.00 | 51 | 1018.8 |
| 20260905165531 | 65 | 272 | 16.0 | 0.0 | 0.00 | 0.01 | 0.00 | 50 | 1018.7 |
| 20260905165032 | 65 | 277 | 14.0 | 0.0 | 0.00 | 0.01 | 0.00 | 50 | 1018.8 |
| 20260905164531 | 65 | 270 | 15.0 | 0.0 | 0.00 | 0.01 | 0.00 | 50 | 1018.7 |
| 20260905164032 | 65 | 285 | 16.0 | 0.0 | 0.00 | 0.01 | 0.00 | 49 | 1018.7 |
| 20260905163532 | 65 | 282 | 22.0 | 0.0 | 0.00 | 0.01 | 0.00 | 48 | 1018.6 |
| 20260905163032 | 65 | 292 | 19.0 | 0.0 | 0.00 | 0.01 | 0.00 | 48 | 1018.6 |
| 20260905162531 | 65 | 280 | 18.0 | 0.0 | 0.00 | 0.01 | 0.00 | 48 | 1018.3 |
| 20260905162031 | 66 | 285 | 17.0 | 0.0 | 0.00 | 0.01 | 0.00 | 47 | 1018.5 |
| 20260905161532 | 66 | 287 | 19.0 | 0.0 | 0.00 | 0.01 | 0.00 | 47 | 1018.5 |
| 20260905161031 | 66 | 297 | 20.0 | 0.0 | 0.00 | 0.01 | 0.00 | 47 | 1018.4 |
| 20260905160532 | 67 | 270 | 18.0 | 0.0 | 0.00 | 0.01 | 0.00 | 47 | 1018.3 |
| 20260905160033 | 67 | 275 | 18.0 | 0.0 | 0.00 | 0.01 | 0.00 | 46 | 1018.5 |
| 20260905155531 | 67 | 267 | 18.0 | 0.0 | 0.00 | 0.01 | 0.00 | 48 | 1018.4 |
| 20260905155032 | 67 | 270 | 17.0 | 0.0 | 0.00 | 0.01 | 0.00 | 48 | 1018.5 |
| 20260905154531 | 68 | 265 | 16.0 | 0.0 | 0.00 | 0.01 | 0.00 | 47 | 1018.5 |
| 20260905154032 | 67 | 262 | 18.0 | 0.0 | 0.00 | 0.01 | 0.00 | 48 | 1018.5 |
| 20260905153531 | 67 | 265 | 19.0 | 0.0 | 0.00 | 0.01 | 0.00 | 49 | 1018.4 |
| 20260905153032 | 67 | 262 | 22.0 | 0.0 | 0.00 | 0.01 | 0.00 | 48 | 1018.4 |
| 20260905152532 | 67 | 270 | 26.0 | 0.0 | 0.00 | 0.01 | 0.00 | 49 | 1018.4 |
| 20260905152031 | 67 | 275 | 21.0 | 0.0 | 0.00 | 0.01 | 0.00 | 48 | 1018.3 |
| 20260905151531 | 68 | 285 | 19.0 | 0.0 | 0.00 | 0.01 | 0.00 | 47 | 1018.5 |
| 20260905151032 | 68 | 270 | 21.0 | 0.0 | 0.00 | 0.01 | 0.00 | 47 | 1018.4 |
| 20260905150532 | 68 | 265 | 17.0 | 0.0 | 0.00 | 0.01 | 0.00 | 47 | 1018.3 |
| 20260905150031 | 68 | 260 | 20.0 | 0.0 | 0.00 | 0.01 | 0.00 | 46 | 1018.3 |
| 20260905145532 | 69 | 280 | 19.0 | 0.0 | 0.00 | 0.01 | 0.00 | 47 | 1018.5 |
| 20260905145031 | 69 | 265 | 18.0 | 0.0 | 0.00 | 0.01 | 0.00 | 48 | 1018.3 |
| 20260905144531 | 68 | 270 | 20.0 | 0.0 | 0.00 | 0.01 | 0.00 | 47 | 1018.2 |
| 20260905144032 | 68 | 270 | 18.0 | 0.0 | 0.00 | 0.01 | 0.00 | 47 | 1017.8 |
| 20260905143532 | 68 | 280 | 17.0 | 0.0 | 0.00 | 0.01 | 0.00 | 47 | 1018.3 |
| 20260905143032 | 68 | 260 | 21.0 | 0.0 | 0.00 | 0.01 | 0.00 | 47 | 1018.3 |
| 20260905142531 | 69 | 270 | 19.0 | 0.0 | 0.00 | 0.01 | 0.00 | 48 | 1018.3 |
| 20260905142032 | 68 | 300 | 21.0 | 0.0 | 0.00 | 0.01 | 0.00 | 47 | 1018.2 |
| 20260905141532 | 68 | 290 | 20.0 | 0.0 | 0.00 | 0.01 | 0.00 | 48 | 1018.4 |
| 20260905141031 | 66 | 297 | 22.0 | 0.0 | 0.00 | 0.01 | 0.00 | 48 | 1018.2 |
| 20260905140532 | 67 | 287 | 20.0 | 0.0 | 0.00 | 0.01 | 0.00 | 50 | 1018.0 |
| 20260905140032 | 67 | 277 | 19.0 | 0.0 | 0.00 | 0.01 | 0.00 | 50 | 1018.3 |
| 20260905135532 | 66 | 275 | 19.0 | 0.0 | 0.00 | 0.01 | 0.00 | 49 | 1018.1 |
| 20260905135032 | 67 | 260 | 26.0 | 0.0 | 0.00 | 0.01 | 0.00 | 49 | 1018.1 |
| 20260905134532 | 67 | 275 | 20.0 | 0.0 | 0.00 | 0.01 | 0.00 | 49 | 1018.2 |
| 20260905134031 | 67 | 282 | 23.0 | 0.0 | 0.00 | 0.01 | 0.00 | 49 | 1018.0 |
| 20260905133531 | 66 | 257 | 20.0 | 0.0 | 0.00 | 0.01 | 0.00 | 50 | 1018.0 |
| 20260905133031 | 67 | 270 | 23.0 | 0.0 | 0.00 | 0.01 | 0.00 | 50 | 1017.9 |
| 20260905132532 | 67 | 270 | 23.0 | 0.0 | 0.00 | 0.01 | 0.00 | 49 | 1018.3 |
| 20260905132032 | 67 | 272 | 23.0 | 0.0 | 0.00 | 0.01 | 0.00 | 50 | 1018.0 |
| 20260905131531 | 67 | 275 | 18.0 | 0.0 | 0.00 | 0.01 | 0.00 | 51 | 1018.2 |
| 20260905131031 | 68 | 257 | 25.0 | 0.0 | 0.00 | 0.01 | 0.00 | 50 | 1018.1 |
| 20260905130532 | 68 | 262 | 20.0 | 0.0 | 0.00 | 0.01 | 0.00 | 50 | 1018.1 |
| 20260905130032 | 67 | 260 | 20.0 | 0.0 | 0.00 | 0.01 | 0.00 | 50 | 1018.0 |
| 20260905125531 | 67 | 275 | 27.0 | 0.0 | 0.00 | 0.01 | 0.00 | 48 | 1018.0 |
| 20260905125032 | 67 | 260 | 20.0 | 0.0 | 0.00 | 0.01 | 0.00 | 52 | 1017.9 |
| 20260905124531 | 67 | 257 | 17.0 | 0.0 | 0.00 | 0.01 | 0.00 | 51 | 1017.9 |
| 20260905124032 | 67 | 260 | 20.0 | 0.0 | 0.00 | 0.01 | 0.00 | 51 | 1017.9 |
| 20260905123532 | 66 | 282 | 19.0 | 0.0 | 0.00 | 0.01 | 0.00 | 52 | 1017.9 |
| 20260905123032 | 66 | 275 | 18.0 | 0.0 | 0.00 | 0.01 | 0.00 | 50 | 1017.7 |
| 20260905122531 | 67 | 287 | 18.0 | 0.0 | 0.00 | 0.01 | 0.00 | 51 | 1017.9 |
| 20260905122032 | 67 | 292 | 21.0 | 0.0 | 0.00 | 0.01 | 0.00 | 51 | 1017.8 |
| 20260905121531 | 67 | 292 | 17.0 | 0.0 | 0.00 | 0.01 | 0.00 | 52 | 1017.8 |
| 20260905121032 | 67 | 285 | 18.0 | 0.0 | 0.00 | 0.01 | 0.00 | 52 | 1017.7 |
| 20260905120532 | 67 | 270 | 16.0 | 0.0 | 0.00 | 0.01 | 0.00 | 53 | 1018.0 |
| 20260905120032 | 66 | 272 | 24.0 | 0.0 | 0.00 | 0.01 | 0.00 | 51 | 1017.9 |
| 20260905115532 | 66 | 260 | 19.0 | 0.0 | 0.00 | 0.00 | 0.00 | 53 | 1018.0 |
| 20260905115032 | 66 | 260 | 18.0 | 0.0 | 0.00 | 0.00 | 0.00 | 55 | 1018.1 |
| 20260905114531 | 66 | 260 | 17.0 | 0.0 | 0.00 | 0.00 | 0.00 | 55 | 1018.1 |
| 20260905114032 | 66 | 265 | 15.0 | 0.0 | 0.00 | 0.00 | 0.00 | 56 | 1018.1 |
| 20260905113531 | 64 | 262 | 19.0 | 0.0 | 0.00 | 0.00 | 0.00 | 56 | 1018.3 |
| 20260905113032 | 65 | 265 | 20.0 | 0.0 | 0.00 | 0.00 | 0.00 | 53 | 1018.2 |
| 20260905112532 | 67 | 260 | 19.0 | 0.0 | 0.00 | 0.00 | 0.00 | 55 | 1018.4 |
| 20260905112031 | 66 | 265 | 21.0 | 0.0 | 0.00 | 0.00 | 0.00 | 54 | 1018.2 |
| 20260905111531 | 65 | 267 | 21.0 | 0.0 | 0.00 | 0.00 | 0.00 | 57 | 1018.5 |
| 20260905111032 | 65 | 277 | 32.0 | 0.0 | 0.00 | 0.00 | 0.00 | 55 | 1018.2 |
| 20260905110531 | 66 | 265 | 22.0 | 0.0 | 0.00 | 0.00 | 0.00 | 56 | 1018.6 |
| 20260905110031 | 65 | 262 | 21.0 | 0.0 | 0.00 | 0.00 | 0.00 | 57 | 1018.5 |
| 20260905105532 | 64 | 265 | 25.0 | 0.0 | 0.00 | 0.00 | 0.00 | 58 | 1018.5 |
| 20260905105032 | 66 | 280 | 22.0 | 0.0 | 0.00 | 0.00 | 0.00 | 55 | 1018.3 |
| 20260905104531 | 66 | 270 | 19.0 | 0.0 | 0.00 | 0.00 | 0.00 | 56 | 1018.5 |
| 20260905104032 | 65 | 265 | 19.0 | 0.0 | 0.00 | 0.00 | 0.00 | 56 | 1018.5 |
| 20260905103532 | 65 | 267 | 22.0 | 0.0 | 0.00 | 0.00 | 0.00 | 58 | 1018.3 |
| 20260905103032 | 65 | 260 | 17.0 | 0.0 | 0.00 | 0.00 | 0.00 | 59 | 1018.2 |
| 20260905102532 | 65 | 265 | 18.0 | 0.0 | 0.00 | 0.00 | 0.00 | 60 | 1018.3 |
| 20260905102032 | 64 | 255 | 21.0 | 0.0 | 0.00 | 0.00 | 0.00 | 61 | 1018.3 |
| 20260905101532 | 62 | 265 | 17.0 | 0.0 | 0.00 | 0.00 | 0.00 | 61 | 1018.2 |
| 20260905101031 | 62 | 275 | 20.0 | 0.0 | 0.00 | 0.00 | 0.00 | 62 | 1018.1 |
| 20260905100532 | 62 | 270 | 18.0 | 0.0 | 0.00 | 0.00 | 0.00 | 62 | 1018.1 |
| 20260905100032 | 63 | 285 | 13.0 | 0.0 | 0.00 | 0.00 | 0.00 | 62 | 1018.1 |
| 20260905095532 | 63 | 280 | 15.0 | 0.0 | 0.00 | 0.00 | 0.00 | 60 | 1018.0 |
| 20260905095032 | 64 | 280 | 18.0 | 0.0 | 0.00 | 0.00 | 0.00 | 61 | 1017.9 |
| 20260905094532 | 63 | 257 | 20.0 | 0.0 | 0.00 | 0.00 | 0.00 | 61 | 1017.9 |
| 20260905094031 | 63 | 265 | 20.0 | 0.0 | 0.00 | 0.00 | 0.00 | 63 | 1017.9 |
| 20260905093531 | 62 | 270 | 21.0 | 0.0 | 0.00 | 0.00 | 0.00 | 65 | 1018.0 |
| 20260905093031 | 62 | 252 | 19.0 | 0.0 | 0.00 | 0.00 | 0.00 | 65 | 1018.1 |
| 20260905092532 | 61 | 260 | 17.0 | 0.0 | 0.00 | 0.00 | 0.00 | 66 | 1017.9 |
| 20260905092031 | 62 | 262 | 18.0 | 0.0 | 0.00 | 0.00 | 0.00 | 65 | 1017.8 |
| 20260905091531 | 62 | 270 | 17.0 | 0.0 | 0.00 | 0.00 | 0.00 | 65 | 1017.7 |
| 20260905091032 | 63 | 255 | 19.0 | 0.0 | 0.00 | 0.00 | 0.00 | 66 | 1017.6 |
| 20260905090532 | 63 | 265 | 14.0 | 0.0 | 0.00 | 0.00 | 0.00 | 67 | 1017.5 |
| 20260905090031 | 62 | 260 | 15.0 | 0.0 | 0.00 | 0.00 | 0.00 | 68 | 1017.7 |
| 20260905085532 | 61 | 255 | 19.0 | 0.0 | 0.00 | 0.00 | 0.00 | 68 | 1017.5 |
| 20260905085031 | 62 | 250 | 20.0 | 0.0 | 0.00 | 0.00 | 0.00 | 67 | 1017.5 |
| 20260905084532 | 62 | 260 | 19.0 | 0.0 | 0.00 | 0.00 | 0.00 | 68 | 1017.5 |
| 20260905084031 | 61 | 255 | 19.0 | 0.0 | 0.00 | 0.00 | 0.00 | 69 | 1017.4 |
| 20260905083532 | 61 | 265 | 18.0 | 0.0 | 0.00 | 0.00 | 0.00 | 70 | 1017.6 |
| 20260905083031 | 62 | 265 | 12.0 | 0.0 | 0.00 | 0.00 | 0.00 | 71 | 1017.5 |
| 20260905082532 | 61 | 255 | 14.0 | 0.0 | 0.00 | 0.00 | 0.00 | 70 | 1017.5 |
| 20260905082032 | 62 | 252 | 16.0 | 0.0 | 0.00 | 0.00 | 0.00 | 70 | 1017.5 |
| 20260905081531 | 62 | 265 | 15.0 | 0.0 | 0.00 | 0.00 | 0.00 | 71 | 1017.5 |
| 20260905081031 | 61 | 247 | 16.0 | 0.0 | 0.00 | 0.00 | 0.00 | 72 | 1017.5 |
| 20260905080531 | 61 | 255 | 14.0 | 0.0 | 0.00 | 0.00 | 0.00 | 72 | 1017.4 |
| 20260905080031 | 61 | 242 | 15.0 | 0.0 | 0.00 | 0.00 | 0.00 | 71 | 1017.4 |
| 20260905075531 | 61 | 250 | 17.0 | 0.0 | 0.00 | 0.00 | 0.00 | 71 | 1017.4 |
| 20260905075032 | 61 | 250 | 19.0 | 0.0 | 0.00 | 0.00 | 0.00 | 72 | 1017.1 |
| 20260905074532 | 61 | 257 | 17.0 | 0.0 | 0.00 | 0.00 | 0.00 | 73 | 1017.3 |
| 20260905074031 | 61 | 252 | 16.0 | 0.0 | 0.00 | 0.00 | 0.00 | 73 | 1017.4 |
| 20260905073531 | 61 | 260 | 14.0 | 0.0 | 0.00 | 0.00 | 0.00 | 75 | 1017.2 |
| 20260905073032 | 61 | 262 | 14.0 | 0.0 | 0.00 | 0.00 | 0.00 | 76 | 1017.1 |
| 20260905072532 | 60 | 260 | 16.0 | 0.0 | 0.00 | 0.00 | 0.00 | 75 | 1017.2 |
| 20260905072031 | 60 | 250 | 15.0 | 0.0 | 0.00 | 0.00 | 0.00 | 76 | 1017.0 |
| 20260905071532 | 60 | 255 | 19.0 | 0.0 | 0.00 | 0.00 | 0.00 | 76 | 1017.0 |
| 20260905071031 | 60 | 247 | 15.0 | 0.0 | 0.00 | 0.00 | 0.00 | 77 | 1017.0 |
| 20260905070532 | 60 | 257 | 16.0 | 0.0 | 0.00 | 0.00 | 0.00 | 77 | 1017.1 |
| 20260905070031 | 60 | 262 | 16.0 | 0.0 | 0.00 | 0.00 | 0.00 | 77 | 1017.1 |
| 20260905065532 | 59 | 257 | 16.0 | 0.0 | 0.00 | 0.00 | 0.00 | 78 | 1017.0 |
| 20260905065032 | 59 | 265 | 15.0 | 0.0 | 0.00 | 0.00 | 0.00 | 78 | 1016.9 |
| 20260905064531 | 59 | 255 | 13.0 | 0.0 | 0.00 | 0.00 | 0.00 | 79 | 1016.8 |
| 20260905064032 | 59 | 255 | 15.0 | 0.0 | 0.00 | 0.00 | 0.00 | 79 | 1016.8 |
| 20260905063531 | 59 | 257 | 11.0 | 0.0 | 0.00 | 0.00 | 0.00 | 80 | 1016.7 |
| 20260905063032 | 58 | 262 | 14.0 | 0.0 | 0.00 | 0.00 | 0.00 | 81 | 1016.7 |
| 20260905062532 | 58 | 257 | 13.0 | 0.0 | 0.00 | 0.00 | 0.00 | 81 | 1016.7 |
| 20260905062032 | 58 | 252 | 12.0 | 0.0 | 0.00 | 0.00 | 0.00 | 83 | 1016.7 |
| 20260905061532 | 58 | 247 | 13.0 | 0.0 | 0.00 | 0.00 | 0.00 | 84 | 1016.6 |
| 20260905061031 | 58 | 252 | 12.0 | 0.0 | 0.00 | 0.00 | 0.00 | 84 | 1016.6 |
| 20260905060532 | 57 | 255 | 12.0 | 0.0 | 0.00 | 0.00 | 0.00 | 85 | 1016.6 |
| 20260905060031 | 57 | 260 | 12.0 | 0.0 | 0.00 | 0.00 | 0.00 | 85 | 1016.5 |
| 20260905055532 | 57 | 237 | 12.0 | 0.0 | 0.00 | 0.00 | 0.00 | 85 | 1016.6 |
| 20260905055031 | 57 | 255 | 11.0 | 0.0 | 0.00 | 0.00 | 0.00 | 85 | 1016.5 |
| 20260905054531 | 57 | 257 | 11.0 | 0.0 | 0.00 | 0.00 | 0.00 | 85 | 1016.4 |
| 20260905054031 | 56 | 255 | 13.0 | 0.0 | 0.00 | 0.00 | 0.00 | 86 | 1016.2 |
| 20260905053531 | 56 | 262 | 12.0 | 0.0 | 0.00 | 0.00 | 0.00 | 86 | 1016.3 |
| 20260905053032 | 56 | 255 | 12.0 | 0.0 | 0.00 | 0.00 | 0.00 | 86 | 1016.3 |
| 20260905052532 | 56 | 260 | 12.0 | 0.0 | 0.00 | 0.00 | 0.00 | 86 | 1016.1 |
| 20260905052031 | 56 | 255 | 12.0 | 0.0 | 0.00 | 0.00 | 0.00 | 86 | 1016.2 |
| 20260905051532 | 56 | 260 | 11.0 | 0.0 | 0.00 | 0.00 | 0.00 | 86 | 1016.1 |
| 20260905051032 | 56 | 265 | 11.0 | 0.0 | 0.00 | 0.00 | 0.00 | 86 | 1016.1 |
| 20260905050531 | 56 | 260 | 13.0 | 0.0 | 0.00 | 0.00 | 0.00 | 86 | 1015.9 |
| 20260905050031 | 56 | 260 | 15.0 | 0.0 | 0.00 | 0.43 | 0.00 | 86 | 1015.9 |
| 20260905045532 | 56 | 250 | 12.0 | 0.0 | 0.00 | 0.43 | 0.00 | 86 | 1015.9 |
| 20260905045032 | 56 | 257 | 13.0 | 0.0 | 0.00 | 0.43 | 0.00 | 86 | 1015.8 |
| 20260905044533 | 56 | 262 | 10.0 | 0.0 | 0.00 | 0.43 | 0.00 | 86 | 1015.7 |
| 20260905044031 | 56 | 265 | 10.0 | 0.0 | 0.00 | 0.43 | 0.00 | 86 | 1015.7 |
| 20260905043531 | 56 | 285 | 12.0 | 0.0 | 0.00 | 0.43 | 0.00 | 86 | 1015.6 |
| 20260905043031 | 57 | 265 | 17.0 | 0.0 | 0.00 | 0.43 | 0.00 | 86 | 1015.5 |
| 20260905042531 | 56 | 265 | 14.0 | 0.0 | 0.00 | 0.43 | 0.00 | 86 | 1015.5 |
| 20260905042031 | 57 | 280 | 12.0 | 0.0 | 0.00 | 0.43 | 0.00 | 86 | 1015.3 |
| 20260905041531 | 57 | 250 | 9.0 | 0.0 | 0.00 | 0.43 | 0.00 | 86 | 1015.3 |
| 20260905041031 | 57 | 265 | 9.0 | 0.0 | 0.00 | 0.43 | 0.00 | 86 | 1015.2 |
| 20260905040532 | 57 | 260 | 10.0 | 0.0 | 0.00 | 0.43 | 0.00 | 86 | 1015.3 |
| 20260905040032 | 57 | 272 | 12.0 | 0.0 | 0.00 | 0.43 | 0.00 | 86 | 1015.3 |
| 20260905035532 | 57 | 260 | 12.0 | 0.0 | 0.00 | 0.43 | 0.00 | 86 | 1015.3 |
| 20260905035031 | 57 | 255 | 10.0 | 0.0 | 0.00 | 0.43 | 0.00 | 86 | 1015.2 |
| 20260905034532 | 57 | 267 | 12.0 | 0.0 | 0.00 | 0.43 | 0.00 | 86 | 1015.0 |
| 20260905034032 | 57 | 262 | 11.0 | 0.0 | 0.00 | 0.43 | 0.00 | 86 | 1015.0 |
| 20260905033532 | 57 | 257 | 10.0 | 0.0 | 0.00 | 0.43 | 0.00 | 86 | 1014.9 |
| 20260905033031 | 57 | 265 | 10.0 | 0.0 | 0.00 | 0.43 | 0.00 | 86 | 1014.9 |
| 20260905032531 | 57 | 260 | 9.0 | 0.0 | 0.00 | 0.43 | 0.00 | 86 | 1014.8 |
| 20260905032032 | 57 | 255 | 10.0 | 0.0 | 0.00 | 0.43 | 0.00 | 86 | 1014.7 |
| 20260905031531 | 57 | 257 | 9.0 | 0.0 | 0.00 | 0.43 | 0.00 | 86 | 1014.7 |